Location: Newark
(49.3000°N, 9.4667°E)
Time: 00:32:32
(UTC+00:00)

Transit 2A Rocket - Pass Details

Date: 19 May 2019
Orbit: 586 x 917 km, 66.7° (Epoch: 16 June)

Event Time Altitude Azimuth Distance (km) Brightness Sun altitude
Rises 20:57:22 0° 282° (WNW) 3,558 9.2 -14.1°
Reaches altitude 10° 21:00:52 10° 301° (WNW) 2,611 8.8 -14.4°
Maximum altitude 21:04:50 18° 342° (NNW) 2,097 8.3 -14.7°
Drops below altitude 10° 21:08:44 10° 23° (NNE) 2,549 8.2 -15.1°
Sets 21:12:06 0° 43° (NE) 3,438 8.6 -15.4°
